Location: Spangle
(47.4302°N, 117.3779°W)
Time: 14:40:20
(UTC+00:00)

Envisat - Pass Details

Date: 26 April 2026
Orbit: 761 x 762 km, 98.4° (Epoch: 15 May)

Event Time Altitude Azimuth Distance (km) Brightness Sun altitude
Rises 09:20:20 0° 27° (NNE) 3,234 7.6 -25.5°
Reaches altitude 10° 09:23:15 10° 44° (NE) 2,303 6.4 -25.3°
Maximum altitude 09:26:56 20° 91° (E) 1,711 5.0 -25.1°
Enters shadow 09:29:30 14° 127° (SE) 2,017 5.1 -24.9°
